SCP
-0 -0 -1 -1 -1 -1 -0 -0 -0 -0 -0 -0 -0 -0 -0 -0 -0 -0 -0 -0 0 0 0 0 0 0 0 0 -0 -0 -0 -0 0 -0 -0 0 0 0 0 0 0 0 0
-1 -0 -1 -1 -1 -1 -0 -0 -0 -0 -0 -0 -0 -0 -0 -0 -0 -0 -0 0 0 0 0 0 0 0 0 -0 -0 -0 0 0 -0 -0 -0 -0 0 0 0 0 0 0 0
-1 -0 -0 -1 -1 -1 -0 -0 -0 -0 -0 -0 -0 -0 -0 -0 0 0 0 0 0 0 0 0 0 0 0 -0 0 0 0 -0 -0 -0 -0 0 0 0 -0 0 0 0 0
-0 0 -0 -0 -1 -0 -0 -0 -0 -0 0 0 -0 0 0 0 0 0 0 0 0 0 0 0 0 -0 0 0 0 0 -0 -0 -0 -0 0 0 0 0 0 0 0 0 0
0 0 0 -0 -0 -0 -0 -0 -0 -0 -0 -0 -0 0 0 0 0 0 0 0 0 0 0 0 0 0 0 0 0 -0 -0 0 0 0 -0 -0 0 0 0 0 0 0 0
0 0 0 0 -0 -0 -0 -0 -0 -0 -0 -0 0 0 0 0 -0 -0 -0 -0 -0 -0 -0 0 0 0 -0 -0 -0 -0 -0 -0 -0 -0 -0 0 0 0 0 0 0 0 0
0 0 0 0 0 0 0 0 0 -0 0 0 0 -0 -0 -0 -0 -0 -0 -0 -0 -0 -0 -0 -0 -0 -0 -0 -0 -0 -0 -0 -0 -0 -0 -0 0 0 0 0 0 0 0
0 0 0 0 0 0 0 0 0 0 0 0 0 0 -0 -0 -0 -0 -0 -0 -0 -0 -0 -0 -0 -0 -0 -0 -0 -0 -0 -0 -0 0 -0 -0 0 0 0 0 0 0 0
1 1 1 1 1 1 1 1 0 0 0 0 0 0 0 -0 -0 -0 -0 -0 -0 -0 -0 -0 -0 -0 -0 -0 -0 -0 -0 -0 -0 -0 -0 0 0 0 0 0 0 0 0
1 1 1 1 1 1 1 1 1 1 0 0 0 0 0 0 0 0 0 0 0 0 0 0 -0 -0 -0 -0 -0 -0 -0 -0 -0 -0 -0 0 0 0 0 0 0 0 0
1 1 0 1 1 1 1 1 1 1 1 1 0 0 0 0 0 0 0 0 0 0 0 0 0 0 -0 -0 -0 -0 0 0 -0 -0 -0 0 0 0 0 0 0 0 0
2 1 0 0 1 1 1 1 1 1 1 1 1 1 1 0 0 0 0 0 0 0 0 0 0 0 0 0 -0 -0 0 0 0 -0 0 0 0 0 0 0 0 0 0
1 2 0 1 1 0 1 1 1 1 1 1 1 1 1 1 0 0 0 0 0 0 0 0 0 0 0 0 0 0 0 0 0 0 0 0 0 0 0 0 0 0 0
0 1 1 1 0 0 0 1 1 1 1 1 1 1 1 1 1 1 0 0 0 0 0 0 0 0 0 0 0 0 0 0 0 0 0 0 0 0 0 0 0 0 0
0 0 2 1 1 0 0 1 1 1 1 2 1 1 1 1 1 1 1 0 0 0 0 0 0 0 0 0 0 0 0 0 0 0 0 0 0 0 0 1 0 0 0
0 0 1 4 2 1 1 1 1 1 1 1 1 1 1 1 1 1 1 0 0 0 0 0 0 0 0 0 0 0 0 0 0 1 0 0 0 0 1 1 1 1 1
0 0 0 0 4 3 1 3 4 3 1 1 1 1 1 1 1 1 0 0 0 0 0 0 0 0 0 0 0 0 0 1 1 1 1 1 0 0 1 1 1 1 1
0 0 0 0 0 0 4 3 5 5 5 4 1 1 1 1 2 1 1 1 0 0 0 0 0 0 0 0 0 0 1 1 1 1 1 1 1 1 1 1 1 1 2
0 0 0 0 0 0 0 2 3 4 4 4 4 2 2 2 2 3 2 2 1 1 1 1 0 0 0 1 0 0 1 1 1 1 1 1 1 1 1 1 1 2 2
0 0 0 0 0 0 0 1 4 5 4 3 3 4 3 2 2 3 4 2 2 2 1 2 1 1 1 1 1 1 1 2 1 2 2 2 1 1 1 2 2 2 2
0 0 0 0 0 0 0 0 1 3 5 4 3 4 2 3 2 2 4 3 2 2 1 1 1 1 1 1 2 1 1 1 1 2 1 2 1 1 2 3 2 2 1
0 0 0 0 0 0 0 0 0 1 2 4 4 4 3 4 3 3 3 3 3 2 2 1 2 1 1 1 1 2 2 1 2 2 2 3 2 2 2 2 3 3 3
0 0 0 0 0 0 0 0 0 0 0 0 3 4 4 3 4 4 3 4 4 3 2 2 2 2 2 1 1 2 3 2 2 1 2 3 2 2 2 3 3 3 2
0 0 0 0 0 0 0 0 0 0 0 0 0 0 2 3 3 4 4 4 3 4 3 3 2 2 2 1 3 1 2 2 2 8 6 3 2 2 1 2 2 2 1
0 0 0 0 0 0 0 0 0 0 0 0 0 0 0 0 3 3 4 5 5 4 4 3 3 3 4 3 2 3 2 5 10 6 5 5 4 3 2 2 1 1 0
0 0 0 0 0 0 0 0 0 0 0 0 0 0 0 0 0 1 4 4 6 6 4 5 3 3 4 4 3 2 3 3 5 8 5 3 3 3 3 3 1 1 0
Wind_Speed_500mb
52 50 49 47 48 44 42 43 40 39 38 34 30 28 25 28 32 35 36 36 34 32 30 27 23 21 21 20 20 21 23 24 26 29 33 34 29 22 20 21 24 19 16
44 53 51 48 48 45 44 42 39 37 34 30 28 28 28 32 34 35 35 34 31 28 25 23 23 24 25 26 24 23 23 23 22 23 24 32 30 29 23 19 17 14 14
43 55 53 49 48 45 44 40 38 36 32 29 28 29 30 31 33 34 32 30 27 23 19 18 19 21 22 21 19 21 25 32 30 24 21 22 20 23 26 20 15 14 14
41 52 53 50 47 45 42 39 36 34 32 28 26 29 31 31 32 31 29 27 23 19 16 16 16 17 17 15 15 18 23 26 29 28 24 14 6 16 23 19 17 15 12
45 49 52 50 47 43 41 38 35 32 31 28 25 26 28 29 28 27 25 24 21 19 17 16 15 15 14 13 12 16 20 24 23 23 18 7 11 18 23 16 14 14 15
43 44 46 48 47 43 39 36 33 31 29 28 25 24 26 26 25 23 21 19 18 16 15 15 15 14 13 12 11 13 16 23 21 16 10 6 21 16 23 16 13 13 11
30 41 44 44 44 43 39 36 34 31 30 29 25 23 24 25 25 24 21 19 17 16 14 14 14 13 10 8 7 7 11 17 16 16 11 7 16 18 21 16 14 12 11
14 28 37 41 43 42 40 36 33 32 31 31 29 24 23 24 24 24 22 20 18 17 16 15 14 13 11 9 8 6 6 8 17 11 4 4 13 14 19 16 14 13 12
16 15 19 36 41 42 41 39 36 34 34 33 33 28 23 23 24 24 23 21 20 19 17 16 15 13 12 10 7 6 5 8 13 12 6 4 11 19 19 14 13 13 13
18 14 16 27 42 44 44 42 40 38 38 38 37 35 31 25 24 25 25 24 23 22 21 19 17 15 13 11 8 5 5 4 7 11 8 6 12 24 25 14 11 11 11
27 22 18 12 44 44 45 44 43 41 40 42 44 42 39 35 31 27 26 27 27 26 24 22 20 18 17 14 10 5 6 5 17 12 11 6 9 25 22 13 10 9 10
39 33 27 20 24 44 46 46 46 46 47 50 51 51 48 44 38 34 32 32 31 30 29 26 24 22 20 17 14 10 7 7 7 9 12 7 18 22 19 13 9 9 9
35 29 46 34 27 26 37 49 52 52 51 53 56 57 55 51 48 46 42 43 41 39 36 33 30 28 25 22 21 22 14 10 6 11 14 14 27 29 23 18 13 9 10
22 47 52 45 36 30 28 30 43 47 55 57 60 61 63 62 59 57 55 49 48 46 43 40 37 33 31 30 28 29 23 19 19 18 20 30 30 29 27 24 19 15 13
36 16 45 58 47 43 39 29 33 40 42 41 62 63 65 68 68 66 66 61 56 53 53 49 47 44 41 37 35 33 27 25 23 28 27 24 31 27 25 25 25 21 18
27 2 26 64 56 47 42 33 34 41 48 43 40 60 68 68 69 71 71 70 64 65 61 61 60 56 53 52 46 37 33 43 45 43 39 42 42 34 23 25 25 27 22
30 15 13 20 53 47 44 39 37 42 48 49 48 47 48 55 65 68 71 71 70 67 62 57 64 60 63 50 46 36 37 33 42 47 46 43 44 41 29 26 26 29 28
30 35 14 8 10 47 52 50 50 52 59 58 53 59 58 57 55 55 74 77 70 67 63 58 59 52 56 55 59 50 46 44 39 36 38 35 35 38 35 32 30 32 31
17 24 30 25 20 11 37 47 51 55 52 68 65 55 62 66 64 65 64 81 79 75 69 62 61 64 63 65 65 56 52 51 44 33 36 40 38 34 38 39 42 38 39
22 20 18 26 28 24 17 25 34 51 55 55 57 79 72 70 74 75 75 73 85 87 89 74 79 75 76 76 70 62 59 53 51 46 44 48 52 43 44 47 48 57 51
28 21 9 4 15 29 33 31 28 39 52 57 58 59 72 86 80 83 84 81 84 95 97 97 91 92 91 89 79 66 63 62 60 59 63 62 55 51 54 57 48 60 50
14 2 7 13 21 29 35 37 38 43 41 47 62 65 66 75 84 91 88 92 87 92 100 104 107 108 104 98 85 71 65 72 69 64 67 64 57 59 55 55 45 57 58
5 8 13 19 24 33 39 37 42 47 58 61 57 62 69 72 84 92 93 98 98 96 102 105 110 109 107 105 95 64 33 41 73 75 74 74 73 67 63 61 56 56 65
8 6 14 23 27 32 41 46 48 47 49 54 56 59 56 74 79 88 99 106 103 102 107 111 107 114 116 92 99 102 80 56 44 36 63 67 70 73 61 61 59 64 62
10 7 10 14 19 24 33 40 43 48 51 58 60 75 80 71 72 90 96 99 113 114 115 108 104 110 119 117 108 96 114 74 51 41 36 52 57 65 60 62 65 60 67
7 9 14 25 35 38 30 41 43 48 57 56 62 67 84 93 91 82 76 99 107 112 117 118 108 109 113 114 114 104 100 117 101 82 60 46 54 60 55 63 63 58 68
Wind_Direction_500mb
161 152 152 153 149 145 144 141 138 137 137 135 135 134 131 129 131 133 132 134 134 133 131 129 128 128 129 131 132 120 109 101 94 83 76 59 46 41 45 52 55 64 69
169 157 155 156 152 148 146 143 141 138 136 133 131 133 129 129 130 132 134 134 134 134 132 131 129 128 130 130 127 116 104 97 93 88 81 57 47 31 32 39 50 58 65
170 158 156 157 155 151 150 145 145 143 139 133 132 134 132 131 132 134 135 134 133 132 130 127 125 127 128 129 123 116 104 97 84 71 53 53 37 35 21 24 41 50 49
169 161 158 158 157 155 154 153 151 150 147 140 136 139 140 141 141 141 141 139 137 134 130 127 125 126 128 127 120 111 108 103 93 74 72 30 339 4 6 9 26 35 37
168 163 161 160 160 159 158 158 159 156 156 149 144 146 148 149 149 149 149 147 146 143 141 139 135 135 138 133 123 113 116 120 102 94 83 9 7 338 343 355 19 28 30
173 164 164 163 165 165 165 164 165 166 166 164 158 156 158 158 160 161 163 160 156 154 152 149 145 148 148 146 139 129 129 134 120 110 98 59 329 326 340 340 360 11 13
161 167 168 169 170 171 172 174 173 175 176 178 175 170 169 169 171 173 176 175 170 168 167 164 158 157 161 160 152 142 143 158 133 122 152 95 315 334 334 332 346 352 351
129 155 173 175 177 178 179 182 186 185 188 188 190 190 184 183 183 185 187 188 185 183 181 179 174 172 176 183 177 168 165 168 170 158 153 143 310 329 327 319 334 340 339
165 168 177 187 184 184 185 187 192 197 198 198 197 201 204 201 199 199 201 202 198 196 195 195 191 192 193 199 205 201 193 181 206 198 201 266 318 333 333 318 320 327 331
191 204 200 202 196 191 190 192 195 200 203 203 205 207 208 218 221 215 213 214 211 207 206 207 208 208 212 215 219 243 270 240 196 188 198 299 272 304 318 311 313 317 326
202 211 220 230 202 198 197 198 200 202 206 206 206 210 216 217 221 232 230 227 222 219 218 216 219 223 223 219 212 190 359 290 208 167 201 251 296 292 299 297 308 307 314
196 211 226 226 206 206 203 204 205 206 207 207 208 211 214 220 225 226 231 235 235 231 228 225 226 232 235 230 218 200 90 83 177 206 244 298 282 295 294 288 297 303 297
198 211 233 227 218 207 215 210 210 211 212 213 214 213 216 220 222 227 229 228 225 230 230 230 231 232 233 231 231 210 177 177 227 235 258 274 267 284 294 280 284 289 287
263 220 224 233 228 232 226 221 207 218 221 220 220 218 218 219 224 227 230 228 228 227 230 231 233 234 234 234 232 233 210 211 219 259 273 250 259 281 284 280 279 283 278
292 314 221 212 232 232 224 240 233 233 234 246 233 230 225 224 224 227 230 228 228 228 227 229 231 231 231 231 229 233 237 222 227 252 253 235 250 265 285 284 276 273 270
258 330 182 206 214 222 222 232 243 239 248 251 248 238 241 235 230 229 230 232 228 228 227 228 229 228 230 229 226 224 217 217 223 216 244 249 249 256 262 277 273 259 254
250 250 100 187 223 219 228 220 235 245 240 247 253 258 245 247 242 234 231 232 237 231 232 232 229 228 227 227 230 227 220 221 218 222 230 236 247 252 252 268 262 249 243
247 250 253 228 162 218 226 223 221 232 240 239 240 253 252 250 251 245 236 233 233 237 235 235 232 230 229 229 236 231 227 224 226 224 230 237 247 258 246 253 250 246 232
279 278 273 264 261 238 232 234 236 234 243 245 234 236 245 248 247 250 247 236 231 231 233 233 234 229 229 229 236 238 228 227 228 223 227 235 254 246 248 253 254 235 228
232 204 221 255 264 284 277 257 259 259 254 249 249 241 239 247 252 249 250 249 235 233 231 228 230 231 231 235 235 235 229 225 229 227 230 235 248 245 245 247 253 237 230
153 148 144 245 292 284 290 290 284 266 269 268 256 251 247 244 248 248 247 245 240 237 236 229 227 229 231 233 238 240 236 234 231 234 231 236 242 243 244 248 241 237 236
149 121 332 316 298 297 296 296 296 282 274 270 269 262 256 252 246 249 249 245 245 242 240 235 231 230 232 235 232 233 237 235 234 231 236 236 246 253 246 241 240 239 240
47 340 335 327 318 304 295 280 277 283 281 274 272 269 261 254 251 247 248 254 251 248 244 242 237 235 234 236 236 224 217 225 232 231 230 234 242 246 250 237 239 242 246
173 261 291 299 304 303 300 293 286 287 283 281 274 273 266 264 260 255 251 251 254 254 251 244 242 238 237 234 235 229 229 244 217 222 234 240 241 237 242 234 234 243 252
193 275 280 275 291 304 301 294 294 288 290 280 278 273 268 265 264 260 253 252 254 254 255 250 244 242 238 232 235 232 229 228 218 216 211 222 226 227 231 233 239 244 258
237 248 289 293 287 283 289 295 292 293 295 294 291 283 275 270 266 264 267 255 249 255 257 255 252 247 242 234 234 234 230 223 224 226 225 223 229 231 232 238 244 253 254
Wind_Speed_850mb
52 50 49 47 48 44 42 43 40 39 38 34 30 28 25 28 32 35 36 36 34 32 30 27 23 21 21 20 20 21 23 24 26 29 33 34 29 22 20 21 24 19 16
44 53 51 48 48 45 44 42 39 37 34 30 28 28 28 32 34 35 35 34 31 28 25 23 23 24 25 26 24 23 23 23 22 23 24 32 30 29 23 19 17 14 14
43 55 53 49 48 45 44 40 38 36 32 29 28 29 30 31 33 34 32 30 27 23 19 18 19 21 22 21 19 21 25 32 30 24 21 22 20 23 26 20 15 14 14
41 52 53 50 47 45 42 39 36 34 32 28 26 29 31 31 32 31 29 27 23 19 16 16 16 17 17 15 15 18 23 26 29 28 24 14 6 16 23 19 17 15 12
45 49 52 50 47 43 41 38 35 32 31 28 25 26 28 29 28 27 25 24 21 19 17 16 15 15 14 13 12 16 20 24 23 23 18 7 11 18 23 16 14 14 15
43 44 46 48 47 43 39 36 33 31 29 28 25 24 26 26 25 23 21 19 18 16 15 15 15 14 13 12 11 13 16 23 21 16 10 6 21 16 23 16 13 13 11
30 41 44 44 44 43 39 36 34 31 30 29 25 23 24 25 25 24 21 19 17 16 14 14 14 13 10 8 7 7 11 17 16 16 11 7 16 18 21 16 14 12 11
14 28 37 41 43 42 40 36 33 32 31 31 29 24 23 24 24 24 22 20 18 17 16 15 14 13 11 9 8 6 6 8 17 11 4 4 13 14 19 16 14 13 12
16 15 19 36 41 42 41 39 36 34 34 33 33 28 23 23 24 24 23 21 20 19 17 16 15 13 12 10 7 6 5 8 13 12 6 4 11 19 19 14 13 13 13
18 14 16 27 42 44 44 42 40 38 38 38 37 35 31 25 24 25 25 24 23 22 21 19 17 15 13 11 8 5 5 4 7 11 8 6 12 24 25 14 11 11 11
27 22 18 12 44 44 45 44 43 41 40 42 44 42 39 35 31 27 26 27 27 26 24 22 20 18 17 14 10 5 6 5 17 12 11 6 9 25 22 13 10 9 10
39 33 27 20 24 44 46 46 46 46 47 50 51 51 48 44 38 34 32 32 31 30 29 26 24 22 20 17 14 10 7 7 7 9 12 7 18 22 19 13 9 9 9
35 29 46 34 27 26 37 49 52 52 51 53 56 57 55 51 48 46 42 43 41 39 36 33 30 28 25 22 21 22 14 10 6 11 14 14 27 29 23 18 13 9 10
22 47 52 45 36 30 28 30 43 47 55 57 60 61 63 62 59 57 55 49 48 46 43 40 37 33 31 30 28 29 23 19 19 18 20 30 30 29 27 24 19 15 13
36 16 45 58 47 43 39 29 33 40 42 41 62 63 65 68 68 66 66 61 56 53 53 49 47 44 41 37 35 33 27 25 23 28 27 24 31 27 25 25 25 21 18
27 2 26 64 56 47 42 33 34 41 48 43 40 60 68 68 69 71 71 70 64 65 61 61 60 56 53 52 46 37 33 43 45 43 39 42 42 34 23 25 25 27 22
30 15 13 20 53 47 44 39 37 42 48 49 48 47 48 55 65 68 71 71 70 67 62 57 64 60 63 50 46 36 37 33 42 47 46 43 44 41 29 26 26 29 28
30 35 14 8 10 47 52 50 50 52 59 58 53 59 58 57 55 55 74 77 70 67 63 58 59 52 56 55 59 50 46 44 39 36 38 35 35 38 35 32 30 32 31
17 24 30 25 20 11 37 47 51 55 52 68 65 55 62 66 64 65 64 81 79 75 69 62 61 64 63 65 65 56 52 51 44 33 36 40 38 34 38 39 42 38 39
22 20 18 26 28 24 17 25 34 51 55 55 57 79 72 70 74 75 75 73 85 87 89 74 79 75 76 76 70 62 59 53 51 46 44 48 52 43 44 47 48 57 51
28 21 9 4 15 29 33 31 28 39 52 57 58 59 72 86 80 83 84 81 84 95 97 97 91 92 91 89 79 66 63 62 60 59 63 62 55 51 54 57 48 60 50
14 2 7 13 21 29 35 37 38 43 41 47 62 65 66 75 84 91 88 92 87 92 100 104 107 108 104 98 85 71 65 72 69 64 67 64 57 59 55 55 45 57 58
5 8 13 19 24 33 39 37 42 47 58 61 57 62 69 72 84 92 93 98 98 96 102 105 110 109 107 105 95 64 33 41 73 75 74 74 73 67 63 61 56 56 65
8 6 14 23 27 32 41 46 48 47 49 54 56 59 56 74 79 88 99 106 103 102 107 111 107 114 116 92 99 102 80 56 44 36 63 67 70 73 61 61 59 64 62
10 7 10 14 19 24 33 40 43 48 51 58 60 75 80 71 72 90 96 99 113 114 115 108 104 110 119 117 108 96 114 74 51 41 36 52 57 65 60 62 65 60 67
7 9 14 25 35 38 30 41 43 48 57 56 62 67 84 93 91 82 76 99 107 112 117 118 108 109 113 114 114 104 100 117 101 82 60 46 54 60 55 63 63 58 68
Wind_Direction_850mb
161 152 152 153 149 145 144 141 138 137 137 135 135 134 131 129 131 133 132 134 134 133 131 129 128 128 129 131 132 120 109 101 94 83 76 59 46 41 45 52 55 64 69
169 157 155 156 152 148 146 143 141 138 136 133 131 133 129 129 130 132 134 134 134 134 132 131 129 128 130 130 127 116 104 97 93 88 81 57 47 31 32 39 50 58 65
170 158 156 157 155 151 150 145 145 143 139 133 132 134 132 131 132 134 135 134 133 132 130 127 125 127 128 129 123 116 104 97 84 71 53 53 37 35 21 24 41 50 49
169 161 158 158 157 155 154 153 151 150 147 140 136 139 140 141 141 141 141 139 137 134 130 127 125 126 128 127 120 111 108 103 93 74 72 30 339 4 6 9 26 35 37
168 163 161 160 160 159 158 158 159 156 156 149 144 146 148 149 149 149 149 147 146 143 141 139 135 135 138 133 123 113 116 120 102 94 83 9 7 338 343 355 19 28 30
173 164 164 163 165 165 165 164 165 166 166 164 158 156 158 158 160 161 163 160 156 154 152 149 145 148 148 146 139 129 129 134 120 110 98 59 329 326 340 340 360 11 13
161 167 168 169 170 171 172 174 173 175 176 178 175 170 169 169 171 173 176 175 170 168 167 164 158 157 161 160 152 142 143 158 133 122 152 95 315 334 334 332 346 352 351
129 155 173 175 177 178 179 182 186 185 188 188 190 190 184 183 183 185 187 188 185 183 181 179 174 172 176 183 177 168 165 168 170 158 153 143 310 329 327 319 334 340 339
165 168 177 187 184 184 185 187 192 197 198 198 197 201 204 201 199 199 201 202 198 196 195 195 191 192 193 199 205 201 193 181 206 198 201 266 318 333 333 318 320 327 331
191 204 200 202 196 191 190 192 195 200 203 203 205 207 208 218 221 215 213 214 211 207 206 207 208 208 212 215 219 243 270 240 196 188 198 299 272 304 318 311 313 317 326
202 211 220 230 202 198 197 198 200 202 206 206 206 210 216 217 221 232 230 227 222 219 218 216 219 223 223 219 212 190 359 290 208 167 201 251 296 292 299 297 308 307 314
196 211 226 226 206 206 203 204 205 206 207 207 208 211 214 220 225 226 231 235 235 231 228 225 226 232 235 230 218 200 90 83 177 206 244 298 282 295 294 288 297 303 297
198 211 233 227 218 207 215 210 210 211 212 213 214 213 216 220 222 227 229 228 225 230 230 230 231 232 233 231 231 210 177 177 227 235 258 274 267 284 294 280 284 289 287
263 220 224 233 228 232 226 221 207 218 221 220 220 218 218 219 224 227 230 228 228 227 230 231 233 234 234 234 232 233 210 211 219 259 273 250 259 281 284 280 279 283 278
292 314 221 212 232 232 224 240 233 233 234 246 233 230 225 224 224 227 230 228 228 228 227 229 231 231 231 231 229 233 237 222 227 252 253 235 250 265 285 284 276 273 270
258 330 182 206 214 222 222 232 243 239 248 251 248 238 241 235 230 229 230 232 228 228 227 228 229 228 230 229 226 224 217 217 223 216 244 249 249 256 262 277 273 259 254
250 250 100 187 223 219 228 220 235 245 240 247 253 258 245 247 242 234 231 232 237 231 232 232 229 228 227 227 230 227 220 221 218 222 230 236 247 252 252 268 262 249 243
247 250 253 228 162 218 226 223 221 232 240 239 240 253 252 250 251 245 236 233 233 237 235 235 232 230 229 229 236 231 227 224 226 224 230 237 247 258 246 253 250 246 232
279 278 273 264 261 238 232 234 236 234 243 245 234 236 245 248 247 250 247 236 231 231 233 233 234 229 229 229 236 238 228 227 228 223 227 235 254 246 248 253 254 235 228
232 204 221 255 264 284 277 257 259 259 254 249 249 241 239 247 252 249 250 249 235 233 231 228 230 231 231 235 235 235 229 225 229 227 230 235 248 245 245 247 253 237 230
153 148 144 245 292 284 290 290 284 266 269 268 256 251 247 244 248 248 247 245 240 237 236 229 227 229 231 233 238 240 236 234 231 234 231 236 242 243 244 248 241 237 236
149 121 332 316 298 297 296 296 296 282 274 270 269 262 256 252 246 249 249 245 245 242 240 235 231 230 232 235 232 233 237 235 234 231 236 236 246 253 246 241 240 239 240
47 340 335 327 318 304 295 280 277 283 281 274 272 269 261 254 251 247 248 254 251 248 244 242 237 235 234 236 236 224 217 225 232 231 230 234 242 246 250 237 239 242 246
173 261 291 299 304 303 300 293 286 287 283 281 274 273 266 264 260 255 251 251 254 254 251 244 242 238 237 234 235 229 229 244 217 222 234 240 241 237 242 234 234 243 252
193 275 280 275 291 304 301 294 294 288 290 280 278 273 268 265 264 260 253 252 254 254 255 250 244 242 238 232 235 232 229 228 218 216 211 222 226 227 231 233 239 244 258
237 248 289 293 287 283 289 295 292 293 295 294 291 283 275 270 266 264 267 255 249 255 257 255 252 247 242 234 234 234 230 223 224 226 225 223 229 231 232 238 244 253 254